STARLINK-35888, 67190

Orbit data source: Space-Track

STARLINK-35888, 67190 is a payload satellite owned by SpaceX/Seattle (US) in LEO that was launched on Wed, 17 Dec 2025 UTC via an FALCON 9 launch vehicle from the Air Force Eastern Test Range (AFETR). Payload-class satellites include a variety of spacecraft equipped with specific instruments for various scientific and technological missions. These include communications satellites like Starlink; space stations such as the ISS; scientific satellites like the Hubble; Earth observation satellites from companies like Planet Labs, Umbra, and HawkEye 360; GPS; miniature CubeSats for education and research; and military/defense satellites.

Loading next visibility...
Identifier
67190, 2025-303AD
Orbit
LEO
Country
Flag of USUS
Related business
Manufacturer
SpaceX/Seattle
Mission
Operational Commercial Communications
Bus & Motor
STARLINK V2MO, Unknown motor
Mass
575 kg wet, ~530 kg dry
Launch date (UTC)
2025-12-17 (6 months ago)
Launch vehicle
FALCON 9
Launch site
Air Force Eastern Test Range (AFETR)
Object type
Payload
Rocket body
Debris
Shape & HBR
Box + 2 Pan, 17.7 m
Radar Cross Section
36.964 m², Large (>1 m²)

Expand to show TLE details & history
Last TLE update: 17 hours ago

TLE from 17 hours ago
0 STARLINK-35888
1 67190U 25303AD  26171.15708057  .00019787  00000-0  72576-3 0  9998
2 67190  43.0021  92.2528 0001390 266.1563  93.9129 15.27620393 28400
Epoch: 2026-06-20T03:46Z
TLE epoch observation values (Epoch: 2026-06-20T03:46:11.761Z)
Latitude
-0.00006°
Longitude
127.32799°
Altitude
482.769 km
Speed
7.626 km/s
True Right ascension
06h 09m 00s
True Declination
0° 00' 00"
Sunlit
Object was in daylight at epoch
Visualization orbit readout
Latitude
Unknown
Longitude
Unknown
Altitude
Unknown
Speed
Unknown
Apparent Right ascension
Unknown
Apparent Declination
Unknown
Sunlit
N/A
Visualization observer readout
Local Sidereal Time
07:15:32
Azimuth
Unknown
Elevation
Unknown
Doppler factor
Unknown
Orbital elements
Apogee altitude
485.827 km
Perigee altitude
483.919 km
Semi-major axis
6,863.01 km
Eccentricity
0.00014
Inclination
43.0021°
RAAN
92.2528°
Arg. of periapsis
266.1563°
True anomaly
93.92879°
Mean anomaly
93.9129°
Eccentric anomaly
93.92085°
Mean motion
3.81743 °/min
Orbital period
94.3 mins
BSTAR
0.00072576
Loading maneuver chart data...
Computing Atmospheric mass density...
Loading historical data...
Loading historical data...
Loading historical data...
Loading historical data...
Loading historical data...
Loading historical data...
Loading historical data...

Documentation

Showing up to 5 results
|